RSEQ Montréal - Cross-country Secondaire et Adaptation scolaire

Montréal, QC

Race Results

Adap.sco. Secondaire - Garçons Élite

Wednesday, 16 October 2019

Results are: Unofficial

Participants 29
Finishers 26
 
 
Position Participant Équipe Temps
1 Xavier Rheault (# 4903) ANJ 00:06:03.7
2 Shawn Saucier (# 4904) ANJ 00:07:40.6
3 Sheldon Bradley-Bouchard (# 4912) CFMS 00:08:15.4
4 Jesse Reiber-Bushay (# 4918) CFMS 00:08:16.4
5 Abderahmane Toumi (# 4965) EJM 00:08:31.5
6 Alexis Bourque (# 4911) CFMS 00:08:47.9
7 Henri Colin David Frenette (# 4966) PM 00:09:07.3
8 Maddox'S Maxius (# 4962) EJM 00:09:20.6
9 Ludovic Lamarche-Cadieux (# 4915) CFMS 00:09:21.5
10 Boris Rodgers (# 4964) EJM 00:09:25.2
11 Younes Naib (# 4916) CFMS 00:09:27.9
12 Raphaël Mourez Vézina (# 4963) EJM 00:09:38.6
13 Prensray Jean Baptiste (# 4899) ANJ 00:09:47.4
14 Serge Bernier Larochelle (# 4894) ANJ 00:09:48.8
15 Adel Amine Kheffache (# 4900) ANJ 00:10:36.2
16 Réginal Cyril (# 4914) CFMS 00:11:01.2
17 Samy Benyahia (# 4960) EJM 00:11:05.7
18 Andrew Clervil (# 4896) ANJ 00:11:19.1
19 Fëri Dessalines (# 4897) ANJ 00:11:27.1
20 Édouard Gagné (# 4898) ANJ 00:11:27.7
21 Carlos-Daniel Clark Fajardo (# 4913) CFMS 00:11:39.4
22 Didier Duy-An Nguyen (# 4902) ANJ 00:12:14.9
23 Yasin Barak (# 4910) CFMS 00:12:34.2
24 Quang Dat Leha (# 4901) ANJ 00:12:36.1
25 Jefer Manuel Renderos Herrera (# 4919) CFMS 00:13:45.7
    Page:     Next >   Last >>